SEASAT 1

Last updated on Fri Jul 11 2025 00:02:12 GMT+0000 (Coordinated Universal Time)

1 10967U 78064A 25191.36778428 .00000161 00000+0 83962-4 0 9990 2 10967 108.0100 337.1543 0000935 290.4939 69.6106 14.45862282471488
UTC large
Height (km)
Speed (km/s)
/
Latitude / Longitude
Inclination (degrees)
Orbital Period (minutes)
Azimuth
Elevation
Range (km)
Doppler Factor

Next 0 passes for location: London (51.5072 / 0.1276)

Sorry there are no passes over London.